weather.gov     
National Weather Service

Regional Weather Roundup
NWS Homepage
This page is being discontinued on March 12, 2014.
The same data is available at this site. Please update your bookmarks.
Thank you, and we apologize for the inconvenience.
Please send an email to SR-SRH.Webmaster@noaa.gov with any concerns.


Current Version
Previous Version:    01  02  03  04  05  06  07  08  09  10  11  12  13  14  15  16  17  18  19  20  21  22  23  24  25  26  27  28  29  30  
   31  32  33  34  35  36  37  38  39  40  41  42  43  44  45  46  47  48  49  50  51  
[Printable]
954
ASUS42 KMHX 241122
RWRMHX
WEATHER ROUNDUP FOR EASTERN NORTH CAROLINA
NATIONAL WEATHER SERVICE NEWPORT/MOREHEAD CITY NC
700 AM EDT FRI OCT 24 2014

NOTE: "FAIR" INDICATES FEW OR NO CLOUDS BELOW 12,000 FEET
WITH NO SIGNIFICANT WEATHER AND/OR OBSTRUCTIONS TO VISIBILITY

NCZ015>017-031-032-045>047-102-103-241200-
NORTH COAST

CITY           SKY/WX    TMP DP  RH WIND       PRES   REMARKS
EDENTON        PTCLDY    49  45  84 NW5       29.99S
ELIZABETH CITY PTCLDY    50  43  77 W9        29.98R
KITTY HAWK     MOSUNNY   54  46  73 NW8       29.94S
MANTEO         PTCLDY    56  46  71 NW10G17   29.96F

$$

NCZ045>047-081-094-103-104-241200-
CENTRAL COAST

CITY           SKY/WX    TMP DP  RH WIND       PRES   REMARKS
FRISCO         CLEAR     57  48  72 NW12G20   29.96R
SWANQUARTER    NOT AVBL

$$

NCZ095-097-098-100-101-241200-
SOUTHERN COAST

CITY           SKY/WX    TMP DP  RH WIND       PRES   REMARKS
BEAUFORT       PTCLDY    52  46  80 N8        29.99R
CEDAR ISLAND   NOT AVBL
JACKSONVILLE   PTCLDY    46  44  93 W5        30.01R
PINEY ISLAND   SUNNY     58  48  69 NW9       29.98R
WILMINGTON     MOCLDY    48  45  89 NW5       30.02R


$$

NCZ011>013-027>030-043-044-078>080-089-090>093-098-241200-
COASTAL PLAIN

CITY           SKY/WX    TMP DP  RH WIND       PRES   REMARKS
AHOSKIE        PTCLDY    46  42  87 CALM      30.01R
CLINTON        MOCLDY    47  46  95 CALM      30.03R
ELIZABETHTOWN  CLOUDY    49  43  81 CALM      30.02S
GOLDSBORO      PTCLDY    47  46  97 NW3       30.00R
GREENVILLE     PTCLDY    46  45  93 CALM      30.03R
HAVELOCK       PTCLDY    52  45  77 N8        30.01R
KENANSVILLE    PTCLDY    46  44  91 CALM      30.02F
KINSTON        PTCLDY    43  43 100 CALM      30.02R
NEW BERN       PTCLDY    50  44  80 CALM      30.01R
RICHLANDS      PTCLDY    46  41  81 CALM      30.02R
ROCKY MOUNT    PTCLDY    48  42  80 NW3       30.02R
WASHINGTON     PTCLDY    47  43  88 CALM      30.01R
WHITEVILLE     MOCLDY    48  44  87 CALM      30.02R

$$

AMZ130-135-150-152-154-156-158-170-250-252-270-ANZ085-086-088-633-658-670-241200-
MARINE OBSERVATIONS

STATION/POSITION TIME  TEMP    WIND        PRES    WAVE   SWELL
                       AIR SEA DIR/SP/G            HT/PER HT/PER
                 (UTC) (F)     (DEG/KT/KT) (MB)    (FT/S) (FT/S)
CHESAPEAKE LIGHT 1100   59     320/ 23/ 25 1014.3
64 E VA BEACH    1100   62 66  320/ 17/ 21 1011.9    6/ 7
DUCK             1100   54 66  300/ 14/ 18 1013.6
2 E DUCK         1100                        N/A     4/ 6
10 NE DUCK       1100      68                N/A     5/ 8   2/11
OREGON INLET     1100   57 64  300/ 11/ 16 1014.1
13E OREGON INLT  1100      70                N/A     6/ 8   2/11
HATTERAS CG      1100   59 64  330/ 18/ 21 1014.8
DIAMOND BUOY     1100   61     320/ 19/ 21 1014.1    4/ 5   2/ 8
17 S OCRACOKE    NOT AVBL
CAPE LOOKOUT     1100   57     350/ 11/ 12 1015.2
BEAUFORT LAB     1100   55 67  340/  7/ 10 1014.9
30 SE NEW RIVER  1100   65 75   10/ 12/ 14 1014.6    3/10   3/10
5 SE WRIGHTSVLE  1100   55 71   10/ 12/ 14   N/A
225 S CAPE HAT   1013   72 77  310/ 10/ 12 1014.7    5/10   5/10
41 SE CHARLESTON 1100   67 78  350/ 10/ 12 1015.7    3/11   3/11

$$




U.S. Dept. of Commerce
NOAA National Weather Service
1325 East West Highway
Silver Spring, MD 20910
E-mail: w-nws.webmaster@noaa.gov
Page last modified: May 16, 2007
NATIONAL WEATHER SERVICE: for Safety, for Work, for Fun - FOR LIFE